Time,TemperatureF,DewpointF,PressureIn,WindDirection,WindDirectionDegrees,WindSpeedMPH,WindSpeedGustMPH,Humidity,HourlyPrecipIn,Conditions,Clouds,dailyrainin,SoftwareType,DateUTC
2013-11-19 00:01:00,38.7,31.1,30.01,WNW,292,18.0,33.0,74,0.00,,,0.00,meteohub,2013-11-19 05:01:00,
2013-11-19 00:02:00,38.7,31.1,30.01,WNW,291,28.0,33.0,74,0.00,,,0.00,meteohub,2013-11-19 05:02:00,
2013-11-19 00:03:00,38.8,31.3,30.01,NW,304,26.0,33.0,74,0.00,,,0.00,meteohub,2013-11-19 05:03:00,
2013-11-19 00:08:00,38.7,30.7,30.01,WNW,294,27.0,33.0,73,0.00,,,0.00,meteohub,2013-11-19 05:08:00,
2013-11-19 00:11:00,38.7,30.7,30.01,NW,313,25.0,33.0,73,0.00,,,0.00,meteohub,2013-11-19 05:11:00,
2013-11-19 00:16:00,38.8,31.6,30.01,NW,315,26.0,30.0,75,0.00,,,0.00,meteohub,2013-11-19 05:16:00,
2013-11-19 00:21:00,38.7,31.5,30.01,NW,311,21.0,32.0,75,0.00,,,0.00,meteohub,2013-11-19 05:21:00,
2013-11-19 00:27:00,38.8,31.3,30.01,NW,311,27.0,32.0,74,0.00,,,0.00,meteohub,2013-11-19 05:27:00,
2013-11-19 00:32:00,38.7,31.5,30.02,WNW,289,21.0,34.0,75,0.00,,,0.00,meteohub,2013-11-19 05:32:00,
2013-11-19 00:37:00,38.7,31.1,30.02,WNW,297,26.0,34.0,74,0.00,,,0.00,meteohub,2013-11-19 05:37:00,
2013-11-19 00:42:00,38.5,30.6,30.02,WNW,301,21.0,34.0,73,0.00,,,0.00,meteohub,2013-11-19 05:42:00,
2013-11-19 00:47:00,38.7,31.1,30.02,NW,319,20.0,32.0,74,0.00,,,0.00,meteohub,2013-11-19 05:47:00,
2013-11-19 00:52:00,38.5,30.6,30.03,NW,311,22.0,30.0,73,0.00,,,0.00,meteohub,2013-11-19 05:52:00,
2013-11-19 00:57:00,38.7,31.5,30.02,WNW,302,26.0,30.0,75,0.00,,,0.00,meteohub,2013-11-19 05:57:00,
2013-11-19 01:02:00,38.5,31.6,30.02,NW,310,27.0,30.0,76,0.00,,,0.00,meteohub,2013-11-19 06:02:00,
2013-11-19 01:07:00,38.5,30.9,30.03,NW,309,22.0,30.0,74,0.00,,,0.00,meteohub,2013-11-19 06:07:00,
2013-11-19 01:12:00,38.7,31.5,30.03,WNW,298,23.0,30.0,75,0.00,,,0.00,meteohub,2013-11-19 06:12:00,
2013-11-19 01:17:00,38.5,30.6,30.03,NW,307,18.0,30.0,73,0.00,,,0.00,meteohub,2013-11-19 06:17:00,
2013-11-19 01:22:00,38.5,31.3,30.04,NW,311,30.0,31.0,75,0.00,,,0.00,meteohub,2013-11-19 06:22:00,
2013-11-19 01:27:00,38.5,31.6,30.04,NW,317,23.0,31.0,76,0.00,,,0.00,meteohub,2013-11-19 06:27:00,
2013-11-19 01:32:00,38.3,30.7,30.04,NW,304,28.0,31.0,74,0.00,,,0.00,meteohub,2013-11-19 06:32:00,
2013-11-19 01:37:00,38.3,30.7,30.04,NW,304,22.0,33.0,74,0.00,,,0.00,meteohub,2013-11-19 06:37:00,
2013-11-19 01:42:00,38.1,30.6,30.04,WNW,295,23.0,33.0,74,0.00,,,0.00,meteohub,2013-11-19 06:42:00,
2013-11-19 01:47:00,38.1,31.3,30.05,NW,309,21.0,33.0,76,0.00,,,0.00,meteohub,2013-11-19 06:47:00,
2013-11-19 01:52:00,37.9,30.0,30.04,NW,313,23.0,34.0,73,0.00,,,0.00,meteohub,2013-11-19 06:52:00,
2013-11-19 01:57:00,38.1,30.2,30.05,NW,323,24.0,34.0,73,0.00,,,0.00,meteohub,2013-11-19 06:57:00,
2013-11-19 02:02:00,38.1,31.3,30.04,WNW,302,21.0,34.0,76,0.00,,,0.00,meteohub,2013-11-19 07:02:00,
2013-11-19 02:07:00,38.3,30.7,30.05,NW,306,21.0,30.0,74,0.00,,,0.00,meteohub,2013-11-19 07:07:00,
2013-11-19 02:12:00,38.3,30.7,30.05,NNW,329,24.0,29.0,74,0.00,,,0.00,meteohub,2013-11-19 07:12:00,
2013-11-19 02:17:00,38.3,30.7,30.05,NW,313,20.0,28.0,74,0.00,,,0.00,meteohub,2013-11-19 07:17:00,
2013-11-19 02:22:00,38.5,31.3,30.05,NW,315,15.0,28.0,75,0.00,,,0.00,meteohub,2013-11-19 07:22:00,
2013-11-19 02:27:00,38.3,31.1,30.05,WNW,300,22.0,28.0,75,0.00,,,0.00,meteohub,2013-11-19 07:27:00,
2013-11-19 02:32:00,38.3,30.4,30.05,WNW,297,17.0,29.0,73,0.00,,,0.00,meteohub,2013-11-19 07:32:00,
2013-11-19 02:37:00,38.5,31.3,30.06,NW,315,23.0,29.0,75,0.00,,,0.00,meteohub,2013-11-19 07:37:00,
2013-11-19 02:42:00,38.5,31.3,30.06,NW,307,22.0,28.0,75,0.00,,,0.00,meteohub,2013-11-19 07:42:00,
2013-11-19 02:47:00,38.3,31.1,30.06,WNW,297,23.0,28.0,75,0.00,,,0.00,meteohub,2013-11-19 07:47:00,
2013-11-19 02:52:00,38.5,31.3,30.06,NW,306,24.0,28.0,75,0.00,,,0.00,meteohub,2013-11-19 07:52:00,
2013-11-19 02:57:00,38.5,30.9,30.06,NW,311,17.0,28.0,74,0.00,,,0.00,meteohub,2013-11-19 07:57:00,
2013-11-19 03:02:00,38.5,30.9,30.07,NW,319,21.0,28.0,74,0.00,,,0.00,meteohub,2013-11-19 08:02:00,
2013-11-19 03:07:00,38.5,31.3,30.07,NW,313,20.0,28.0,75,0.00,,,0.00,meteohub,2013-11-19 08:07:00,
2013-11-19 03:12:00,38.5,31.8,30.06,NW,305,22.0,29.0,77,0.00,,,0.00,meteohub,2013-11-19 08:12:00,
2013-11-19 03:17:00,38.7,31.8,30.07,NW,321,20.0,33.0,76,0.00,,,0.00,meteohub,2013-11-19 08:17:00,
2013-11-19 03:22:00,38.7,31.1,30.07,North,0,18.0,33.0,74,0.00,,,0.00,meteohub,2013-11-19 08:22:00,
2013-11-19 03:27:00,38.5,30.9,30.07,NW,317,24.0,33.0,74,0.00,,,0.00,meteohub,2013-11-19 08:27:00,
2013-11-19 03:32:00,38.3,31.1,30.08,WNW,300,19.0,30.0,75,0.00,,,0.00,meteohub,2013-11-19 08:32:00,
2013-11-19 03:37:00,38.5,31.3,30.08,NW,319,26.0,30.0,75,0.00,,,0.00,meteohub,2013-11-19 08:37:00,
2013-11-19 03:42:00,38.7,31.1,30.08,WNW,301,20.0,30.0,74,0.00,,,0.00,meteohub,2013-11-19 08:42:00,
2013-11-19 03:47:00,38.5,30.9,30.08,WNW,300,23.0,29.0,74,0.00,,,0.00,meteohub,2013-11-19 08:47:00,
2013-11-19 03:52:00,38.5,31.6,30.08,NW,309,23.0,29.0,76,0.00,,,0.00,meteohub,2013-11-19 08:52:00,
2013-11-19 03:57:00,38.5,31.8,30.09,NW,311,21.0,30.0,77,0.00,,,0.00,meteohub,2013-11-19 08:57:00,
2013-11-19 04:02:00,38.1,31.3,30.09,NW,304,25.0,30.0,76,0.00,,,0.00,meteohub,2013-11-19 09:02:00,
2013-11-19 04:07:00,38.3,31.6,30.09,NW,306,20.0,29.0,77,0.00,,,0.00,meteohub,2013-11-19 09:07:00,
2013-11-19 04:12:00,38.3,31.1,30.09,NW,311,26.0,29.0,75,0.00,,,0.00,meteohub,2013-11-19 09:12:00,
2013-11-19 04:17:00,38.5,31.6,30.09,NW,306,26.0,30.0,76,0.00,,,0.00,meteohub,2013-11-19 09:17:00,
2013-11-19 04:22:00,38.1,30.9,30.09,NW,320,19.0,30.0,75,0.00,,,0.00,meteohub,2013-11-19 09:22:00,
2013-11-19 04:27:00,38.1,31.3,30.09,NW,313,20.0,32.0,76,0.00,,,0.00,meteohub,2013-11-19 09:27:00,
2013-11-19 04:32:00,38.1,31.3,30.09,WNW,295,18.0,32.0,76,0.00,,,0.00,meteohub,2013-11-19 09:32:00,
2013-11-19 04:37:00,38.1,30.9,30.09,NW,304,25.0,28.0,75,0.00,,,0.00,meteohub,2013-11-19 09:37:00,
2013-11-19 04:42:00,37.9,31.1,30.10,WNW,298,18.0,28.0,76,0.00,,,0.00,meteohub,2013-11-19 09:42:00,
2013-11-19 04:47:00,37.9,31.1,30.09,NW,308,14.0,29.0,76,0.00,,,0.00,meteohub,2013-11-19 09:47:00,
2013-11-19 04:52:00,37.9,31.1,30.10,WNW,295,22.0,29.0,76,0.00,,,0.00,meteohub,2013-11-19 09:52:00,
2013-11-19 04:57:00,38.1,30.9,30.10,NW,314,23.0,29.0,75,0.00,,,0.00,meteohub,2013-11-19 09:57:00,
2013-11-19 05:02:00,38.1,31.3,30.10,NW,309,26.0,29.0,76,0.00,,,0.00,meteohub,2013-11-19 10:02:00,
2013-11-19 05:07:00,38.1,31.3,30.10,NW,323,27.0,29.0,76,0.00,,,0.00,meteohub,2013-11-19 10:07:00,
2013-11-19 05:12:00,38.1,30.6,30.11,NW,319,21.0,27.0,74,0.00,,,0.00,meteohub,2013-11-19 10:12:00,
2013-11-19 05:17:00,38.1,30.9,30.11,NW,305,23.0,28.0,75,0.00,,,0.00,meteohub,2013-11-19 10:17:00,
2013-11-19 05:22:00,37.9,30.7,30.11,NNW,327,22.0,28.0,75,0.00,,,0.00,meteohub,2013-11-19 10:22:00,
2013-11-19 05:27:00,38.1,31.8,30.12,NW,311,23.0,28.0,78,0.00,,,0.00,meteohub,2013-11-19 10:27:00,
2013-11-19 05:32:00,37.9,30.7,30.11,NW,309,19.0,32.0,75,0.00,,,0.00,meteohub,2013-11-19 10:32:00,
2013-11-19 05:37:00,37.9,31.5,30.12,NNW,328,17.0,32.0,77,0.00,,,0.00,meteohub,2013-11-19 10:37:00,
2013-11-19 05:42:00,37.9,31.1,30.12,WNW,300,24.0,32.0,76,0.00,,,0.00,meteohub,2013-11-19 10:42:00,
2013-11-19 05:47:00,37.9,30.7,30.12,North,0,23.0,30.0,75,0.00,,,0.00,meteohub,2013-11-19 10:47:00,
2013-11-19 05:52:00,37.9,31.1,30.12,WNW,290,21.0,30.0,76,0.00,,,0.00,meteohub,2013-11-19 10:52:00,
2013-11-19 05:57:00,37.9,30.7,30.12,WNW,298,24.0,30.0,75,0.00,,,0.00,meteohub,2013-11-19 10:57:00,
2013-11-19 06:02:00,37.9,31.1,30.12,NW,304,23.0,30.0,76,0.00,,,0.00,meteohub,2013-11-19 11:02:00,
2013-11-19 06:07:00,37.9,31.1,30.12,WNW,298,21.0,31.0,76,0.00,,,0.00,meteohub,2013-11-19 11:07:00,
2013-11-19 06:12:00,38.1,30.6,30.13,NW,314,21.0,31.0,74,0.00,,,0.00,meteohub,2013-11-19 11:12:00,
2013-11-19 06:17:00,38.1,30.9,30.13,NW,306,29.0,31.0,75,0.00,,,0.00,meteohub,2013-11-19 11:17:00,
2013-11-19 06:22:00,38.1,30.2,30.13,NW,309,24.0,31.0,73,0.00,,,0.00,meteohub,2013-11-19 11:22:00,
2013-11-19 06:27:00,38.1,30.2,30.14,NW,321,17.0,30.0,73,0.00,,,0.00,meteohub,2013-11-19 11:27:00,
2013-11-19 06:32:00,38.3,30.7,30.14,WNW,302,20.0,30.0,74,0.00,,,0.00,meteohub,2013-11-19 11:32:00,
2013-11-19 06:37:00,38.1,30.9,30.14,WNW,298,17.0,29.0,75,0.00,,,0.00,meteohub,2013-11-19 11:37:00,
2013-11-19 06:42:00,38.3,31.1,30.14,NW,321,17.0,27.0,75,0.00,,,0.00,meteohub,2013-11-19 11:42:00,
2013-11-19 06:47:00,38.5,31.6,30.14,NW,313,29.0,29.0,76,0.00,,,0.00,meteohub,2013-11-19 11:47:00,
2013-11-19 06:52:00,38.3,30.7,30.14,NW,312,23.0,29.0,74,0.00,,,0.00,meteohub,2013-11-19 11:52:00,
2013-11-19 06:57:00,38.3,31.1,30.15,NW,304,20.0,29.0,75,0.00,,,0.00,meteohub,2013-11-19 11:57:00,
2013-11-19 07:02:00,38.5,31.3,30.15,NW,314,22.0,29.0,75,0.00,,,0.00,meteohub,2013-11-19 12:02:00,
2013-11-19 07:07:00,38.5,31.3,30.16,WNW,298,16.0,27.0,75,0.00,,,0.00,meteohub,2013-11-19 12:07:00,
2013-11-19 07:12:00,38.3,31.1,30.16,NW,326,26.0,27.0,75,0.00,,,0.00,meteohub,2013-11-19 12:12:00,
2013-11-19 07:17:00,38.5,31.3,30.17,NNW,327,18.0,29.0,75,0.00,,,0.00,meteohub,2013-11-19 12:17:00,
2013-11-19 07:22:00,38.5,31.3,30.17,NW,309,15.0,29.0,75,0.00,,,0.00,meteohub,2013-11-19 12:22:00,
2013-11-19 07:27:00,38.5,31.3,30.17,NW,306,17.0,29.0,75,0.00,,,0.00,meteohub,2013-11-19 12:27:00,
2013-11-19 07:32:00,38.3,30.7,30.17,NW,319,26.0,29.0,74,0.00,,,0.00,meteohub,2013-11-19 12:32:00,
2013-11-19 07:37:00,38.3,30.7,30.17,NW,314,16.0,28.0,74,0.00,,,0.00,meteohub,2013-11-19 12:37:00,
2013-11-19 07:42:00,38.1,30.2,30.17,NNW,339,18.0,26.0,73,0.00,,,0.00,meteohub,2013-11-19 12:42:00,
2013-11-19 07:47:00,38.3,30.4,30.17,NW,319,21.0,26.0,73,0.00,,,0.00,meteohub,2013-11-19 12:47:00,
2013-11-19 07:52:00,38.1,30.6,30.18,NNW,331,19.0,25.0,74,0.00,,,0.00,meteohub,2013-11-19 12:52:00,
2013-11-19 07:57:00,37.9,30.4,30.18,NNW,342,18.0,26.0,74,0.00,,,0.00,meteohub,2013-11-19 12:57:00,
2013-11-19 08:02:00,37.9,30.7,30.18,NNW,333,20.0,26.0,75,0.00,,,0.00,meteohub,2013-11-19 13:02:00,
2013-11-19 08:07:00,37.9,29.7,30.19,NW,316,19.0,27.0,72,0.00,,,0.00,meteohub,2013-11-19 13:07:00,
2013-11-19 08:12:00,37.9,30.0,30.19,WNW,302,23.0,30.0,73,0.00,,,0.00,meteohub,2013-11-19 13:12:00,
2013-11-19 08:17:00,38.1,30.9,30.19,NW,310,22.0,30.0,75,0.00,,,0.00,meteohub,2013-11-19 13:17:00,
2013-11-19 08:22:00,38.1,30.2,30.19,NW,316,16.0,30.0,73,0.00,,,0.00,meteohub,2013-11-19 13:22:00,
2013-11-19 08:27:00,37.9,30.4,30.19,NW,314,21.0,28.0,74,0.00,,,0.00,meteohub,2013-11-19 13:27:00,
2013-11-19 08:32:00,37.9,30.7,30.19,NW,325,21.0,27.0,75,0.00,,,0.00,meteohub,2013-11-19 13:32:00,
2013-11-19 08:37:00,37.9,30.4,30.19,NW,320,18.0,25.0,74,0.00,,,0.00,meteohub,2013-11-19 13:37:00,
2013-11-19 08:42:00,37.9,31.1,30.20,NNW,343,19.0,27.0,76,0.00,,,0.00,meteohub,2013-11-19 13:42:00,
2013-11-19 08:47:00,37.9,30.4,30.20,NNW,336,19.0,27.0,74,0.00,,,0.00,meteohub,2013-11-19 13:47:00,
2013-11-19 08:52:00,37.8,30.6,30.20,NNW,340,14.0,27.0,75,0.00,,,0.00,meteohub,2013-11-19 13:52:00,
2013-11-19 08:57:00,37.6,30.0,30.21,NNW,340,17.0,27.0,74,0.00,,,0.00,meteohub,2013-11-19 13:57:00,
2013-11-19 09:02:00,37.8,30.6,30.21,NNW,332,20.0,27.0,75,0.00,,,0.00,meteohub,2013-11-19 14:02:00,
2013-11-19 09:07:00,37.8,30.2,30.21,NNW,336,16.0,22.0,74,0.00,,,0.00,meteohub,2013-11-19 14:07:00,
2013-11-19 09:12:00,37.8,30.2,30.21,NNW,340,18.0,22.0,74,0.00,,,0.00,meteohub,2013-11-19 14:12:00,
2013-11-19 09:17:00,37.6,30.0,30.22,NW,321,17.0,24.0,74,0.00,,,0.00,meteohub,2013-11-19 14:17:00,
2013-11-19 09:22:00,37.6,29.7,30.22,NNW,346,17.0,24.0,73,0.00,,,0.00,meteohub,2013-11-19 14:22:00,
2013-11-19 09:27:00,37.6,30.0,30.22,NNW,347,18.0,24.0,74,0.00,,,0.00,meteohub,2013-11-19 14:27:00,
2013-11-19 09:28:00,37.6,30.0,30.22,NNW,336,13.0,24.0,74,0.00,,,0.00,meteohub,2013-11-19 14:28:00,
2013-11-19 09:33:00,37.6,30.0,30.22,North,350,18.0,21.0,74,0.00,,,0.00,meteohub,2013-11-19 14:33:00,
2013-11-19 09:38:00,37.6,30.0,30.22,North,0,16.0,23.0,74,0.00,,,0.00,meteohub,2013-11-19 14:38:00,
2013-11-19 09:43:00,37.6,30.4,30.23,NNW,334,19.0,23.0,75,0.00,,,0.00,meteohub,2013-11-19 14:43:00,
2013-11-19 09:49:00,37.6,30.7,30.23,NNW,340,13.0,23.0,76,0.00,,,0.00,meteohub,2013-11-19 14:49:00,
2013-11-19 09:54:00,37.6,30.0,30.23,NNW,336,20.0,22.0,74,0.00,,,0.00,meteohub,2013-11-19 14:54:00,
2013-11-19 09:59:00,37.6,30.4,30.23,NNW,348,15.0,22.0,75,0.00,,,0.00,meteohub,2013-11-19 14:59:00,
2013-11-19 10:04:00,37.4,29.5,30.23,NNW,348,16.0,22.0,73,0.00,,,0.00,meteohub,2013-11-19 15:04:00,
2013-11-19 10:09:00,37.6,29.7,30.23,NNW,343,25.0,25.0,73,0.00,,,0.00,meteohub,2013-11-19 15:09:00,
2013-11-19 10:14:00,37.4,29.5,30.24,North,350,17.0,24.0,73,0.00,,,0.00,meteohub,2013-11-19 15:14:00,
2013-11-19 10:20:00,37.2,30.0,30.24,NNW,343,16.0,25.0,75,0.00,,,0.00,meteohub,2013-11-19 15:20:00,
2013-11-19 10:25:00,37.2,29.1,30.24,NNW,343,20.0,25.0,72,0.00,,,0.00,meteohub,2013-11-19 15:25:00,
2013-11-19 10:30:00,37.2,29.7,30.24,NNW,348,19.0,24.0,74,0.00,,,0.00,meteohub,2013-11-19 15:30:00,
2013-11-19 10:35:00,37.2,29.1,30.26,NNW,331,21.0,24.0,72,0.00,,,0.00,meteohub,2013-11-19 15:35:00,
2013-11-19 10:40:00,37.0,29.1,30.25,NNW,336,17.0,23.0,73,0.00,,,0.00,meteohub,2013-11-19 15:40:00,
2013-11-19 10:45:00,37.0,28.9,30.25,NNW,339,18.0,23.0,72,0.00,,,0.00,meteohub,2013-11-19 15:45:00,
2013-11-19 10:50:00,37.0,28.6,30.26,NW,323,15.0,24.0,71,0.00,,,0.00,meteohub,2013-11-19 15:50:00,
2013-11-19 10:56:00,37.2,29.1,30.26,NNW,347,15.0,24.0,72,0.00,,,0.00,meteohub,2013-11-19 15:56:00,
2013-11-19 11:01:00,37.2,30.0,30.26,North,355,13.0,24.0,75,0.00,,,0.00,meteohub,2013-11-19 16:01:00,
2013-11-19 11:06:00,37.2,30.0,30.25,North,351,17.0,20.0,75,0.00,,,0.00,meteohub,2013-11-19 16:06:00,
2013-11-19 11:11:00,37.2,29.7,30.25,NNW,346,17.0,22.0,74,0.00,,,0.00,meteohub,2013-11-19 16:11:00,
2013-11-19 11:16:00,37.0,28.9,30.26,NNW,336,18.0,22.0,72,0.00,,,0.00,meteohub,2013-11-19 16:16:00,
2013-11-19 11:21:00,37.0,29.1,30.25,NNW,345,21.0,22.0,73,0.00,,,0.00,meteohub,2013-11-19 16:21:00,
2013-11-19 11:27:00,36.9,28.9,30.25,NNW,331,22.0,22.0,73,0.00,,,0.00,meteohub,2013-11-19 16:27:00,
2013-11-19 11:32:00,36.9,28.9,30.26,NNW,342,19.0,22.0,73,0.00,,,0.00,meteohub,2013-11-19 16:32:00,
2013-11-19 11:37:00,36.9,28.9,30.26,North,355,15.0,24.0,73,0.00,,,0.00,meteohub,2013-11-19 16:37:00,
2013-11-19 11:42:00,36.9,28.9,30.25,NNW,346,17.0,24.0,73,0.00,,,0.00,meteohub,2013-11-19 16:42:00,
2013-11-19 11:47:00,36.7,29.1,30.26,NNW,348,13.0,20.0,74,0.00,,,0.00,meteohub,2013-11-19 16:47:00,
2013-11-19 11:52:00,36.7,28.6,30.26,North,355,13.0,20.0,72,0.00,,,0.00,meteohub,2013-11-19 16:52:00,
2013-11-19 11:57:00,36.7,29.1,30.26,NW,308,17.0,20.0,74,0.00,,,0.00,meteohub,2013-11-19 16:57:00,
2013-11-19 12:02:00,36.7,28.6,30.26,NW,308,11.0,19.0,72,0.00,,,0.00,meteohub,2013-11-19 17:02:00,
2013-11-19 12:07:00,36.7,28.6,30.26,NNW,344,14.0,19.0,72,0.00,,,0.00,meteohub,2013-11-19 17:07:00,
2013-11-19 12:12:00,36.7,28.8,30.26,NNW,333,12.0,19.0,73,0.00,,,0.00,meteohub,2013-11-19 17:12:00,
2013-11-19 12:17:00,36.7,28.2,30.26,NW,309,16.0,19.0,71,0.00,,,0.00,meteohub,2013-11-19 17:17:00,
2013-11-19 12:22:00,36.7,28.2,30.26,NNW,342,16.0,21.0,71,0.00,,,0.00,meteohub,2013-11-19 17:22:00,
2013-11-19 12:27:00,36.7,28.8,30.26,NNW,327,15.0,21.0,73,0.00,,,0.00,meteohub,2013-11-19 17:27:00,
2013-11-19 12:32:00,36.7,28.8,30.26,NNW,339,9.0,20.0,73,0.00,,,0.00,meteohub,2013-11-19 17:32:00,
2013-11-19 12:35:00,36.7,29.1,30.26,NNW,336,17.0,19.0,74,0.00,,,0.00,meteohub,2013-11-19 17:35:00,
2013-11-19 12:40:00,36.7,28.8,30.26,NW,323,12.0,20.0,73,0.00,,,0.00,meteohub,2013-11-19 17:40:00,
2013-11-19 12:45:00,36.7,28.6,30.26,NNW,338,13.0,20.0,72,0.00,,,0.00,meteohub,2013-11-19 17:45:00,
2013-11-19 12:51:00,36.9,28.9,30.26,NNW,336,14.0,20.0,73,0.00,,,0.00,meteohub,2013-11-19 17:51:00,
2013-11-19 12:56:00,36.9,28.8,30.26,NNW,344,14.0,19.0,72,0.00,,,0.00,meteohub,2013-11-19 17:56:00,
2013-11-19 13:01:00,36.9,28.4,30.26,NNW,345,11.0,18.0,71,0.00,,,0.00,meteohub,2013-11-19 18:01:00,
2013-11-19 13:06:00,36.9,27.7,30.27,NW,323,12.0,18.0,69,0.00,,,0.00,meteohub,2013-11-19 18:06:00,
2013-11-19 13:11:00,36.9,28.4,30.26,NNW,341,13.0,17.0,71,0.00,,,0.00,meteohub,2013-11-19 18:11:00,
2013-11-19 13:16:00,36.9,28.9,30.27,NW,323,12.0,17.0,73,0.00,,,0.00,meteohub,2013-11-19 18:16:00,
2013-11-19 13:21:00,36.9,28.9,30.27,NNW,328,17.0,17.0,73,0.00,,,0.00,meteohub,2013-11-19 18:21:00,
2013-11-19 13:27:00,36.9,28.8,30.27,NW,325,12.0,18.0,72,0.00,,,0.00,meteohub,2013-11-19 18:27:00,
2013-11-19 13:32:00,36.9,28.0,30.27,NW,311,15.0,20.0,70,0.00,,,0.00,meteohub,2013-11-19 18:32:00,
2013-11-19 13:37:00,37.0,27.9,30.27,NNW,330,12.0,20.0,69,0.00,,,0.00,meteohub,2013-11-19 18:37:00,
2013-11-19 13:42:00,37.0,28.2,30.28,NW,326,12.0,20.0,70,0.00,,,0.00,meteohub,2013-11-19 18:42:00,
2013-11-19 13:47:00,36.9,28.4,30.27,NW,306,9.0,18.0,71,0.00,,,0.00,meteohub,2013-11-19 18:47:00,
2013-11-19 13:52:00,36.9,28.0,30.27,NW,321,13.0,17.0,70,0.00,,,0.00,meteohub,2013-11-19 18:52:00,
2013-11-19 13:57:00,36.9,28.0,30.27,NNW,327,14.0,15.0,70,0.00,,,0.00,meteohub,2013-11-19 18:57:00,
2013-11-19 14:02:00,36.9,28.0,30.26,NW,319,10.0,17.0,70,0.00,,,0.00,meteohub,2013-11-19 19:02:00,
2013-11-19 14:05:00,37.0,28.6,30.27,NNW,345,14.0,17.0,71,0.00,,,0.00,meteohub,2013-11-19 19:05:00,
2013-11-19 14:10:00,36.9,28.0,30.27,North,355,9.0,17.0,70,0.00,,,0.00,meteohub,2013-11-19 19:10:00,
2013-11-19 14:15:00,37.0,28.6,30.27,NNW,329,13.0,16.0,71,0.00,,,0.00,meteohub,2013-11-19 19:15:00,
2013-11-19 14:21:00,36.9,28.8,30.27,North,355,13.0,16.0,72,0.00,,,0.00,meteohub,2013-11-19 19:21:00,
2013-11-19 14:26:00,36.9,28.9,30.27,NW,317,7.0,14.0,73,0.00,,,0.00,meteohub,2013-11-19 19:26:00,
2013-11-19 14:31:00,37.0,28.6,30.27,NW,319,13.0,14.0,71,0.00,,,0.00,meteohub,2013-11-19 19:31:00,
2013-11-19 14:36:00,37.0,28.6,30.27,NW,309,9.0,15.0,71,0.00,,,0.00,meteohub,2013-11-19 19:36:00,
2013-11-19 14:42:00,37.0,28.2,30.27,NW,313,10.0,15.0,70,0.00,,,0.00,meteohub,2013-11-19 19:42:00,
2013-11-19 14:47:00,37.0,28.2,30.27,NW,315,9.0,15.0,70,0.00,,,0.00,meteohub,2013-11-19 19:47:00,
2013-11-19 14:52:00,37.0,27.9,30.27,NW,311,7.0,13.0,69,0.00,,,0.00,meteohub,2013-11-19 19:52:00,
2013-11-19 14:57:00,37.0,28.6,30.27,NW,314,12.0,13.0,71,0.00,,,0.00,meteohub,2013-11-19 19:57:00,
2013-11-19 15:02:00,37.2,28.8,30.27,NNW,334,6.0,16.0,71,0.00,,,0.00,meteohub,2013-11-19 20:02:00,
2013-11-19 15:07:00,37.2,28.0,30.28,NW,321,6.0,16.0,69,0.00,,,0.00,meteohub,2013-11-19 20:07:00,
2013-11-19 15:12:00,37.2,28.4,30.28,WNW,299,5.0,16.0,70,0.00,,,0.00,meteohub,2013-11-19 20:12:00,
2013-11-19 15:17:00,37.4,29.1,30.28,NW,324,4.0,12.0,72,0.00,,,0.00,meteohub,2013-11-19 20:17:00,
2013-11-19 15:22:00,37.4,28.9,30.28,NW,324,5.0,13.0,71,0.00,,,0.00,meteohub,2013-11-19 20:22:00,
2013-11-19 15:27:00,37.4,28.6,30.28,NNW,329,7.0,13.0,70,0.00,,,0.00,meteohub,2013-11-19 20:27:00,
2013-11-19 15:32:00,37.2,28.8,30.28,WNW,300,9.0,13.0,71,0.00,,,0.00,meteohub,2013-11-19 20:32:00,
2013-11-19 15:37:00,37.6,29.1,30.28,NNW,339,11.0,11.0,71,0.00,,,0.00,meteohub,2013-11-19 20:37:00,
2013-11-19 15:42:00,37.6,28.4,30.28,NW,322,8.0,12.0,69,0.00,,,0.00,meteohub,2013-11-19 20:42:00,
2013-11-19 15:47:00,37.6,28.8,30.29,NNW,337,6.0,12.0,70,0.00,,,0.00,meteohub,2013-11-19 20:47:00,
2013-11-19 15:52:00,37.6,28.8,30.29,NW,326,5.0,12.0,70,0.00,,,0.00,meteohub,2013-11-19 20:52:00,
2013-11-19 15:57:00,37.6,28.8,30.29,NNW,348,1.0,10.0,70,0.00,,,0.00,meteohub,2013-11-19 20:57:00,
2013-11-19 16:02:00,37.6,29.1,30.29,NW,308,5.0,10.0,71,0.00,,,0.00,meteohub,2013-11-19 21:02:00,
2013-11-19 16:07:00,37.8,29.5,30.29,NW,320,7.0,7.0,72,0.00,,,0.00,meteohub,2013-11-19 21:07:00,
2013-11-19 16:12:00,37.8,28.9,30.29,North,355,10.0,10.0,70,0.00,,,0.00,meteohub,2013-11-19 21:12:00,
2013-11-19 16:17:00,37.8,28.9,30.29,NNW,338,12.0,12.0,70,0.00,,,0.00,meteohub,2013-11-19 21:17:00,
2013-11-19 16:22:00,37.8,28.9,30.29,North,349,11.0,13.0,70,0.00,,,0.00,meteohub,2013-11-19 21:22:00,
2013-11-19 16:27:00,37.8,29.1,30.29,NNW,336,9.0,13.0,71,0.00,,,0.00,meteohub,2013-11-19 21:27:00,
2013-11-19 16:32:00,37.8,29.1,30.29,NW,313,7.0,13.0,71,0.00,,,0.00,meteohub,2013-11-19 21:32:00,
2013-11-19 16:37:00,37.8,29.8,30.29,NNW,328,6.0,11.0,73,0.00,,,0.00,meteohub,2013-11-19 21:37:00,
2013-11-19 16:42:00,37.8,29.1,30.29,NW,325,6.0,11.0,71,0.00,,,0.00,meteohub,2013-11-19 21:42:00,
2013-11-19 16:47:00,37.8,29.1,30.29,NNW,334,7.0,12.0,71,0.00,,,0.00,meteohub,2013-11-19 21:47:00,
2013-11-19 16:52:00,37.8,29.1,30.29,North,5,9.0,14.0,71,0.00,,,0.00,meteohub,2013-11-19 21:52:00,
2013-11-19 16:57:00,37.8,29.1,30.30,North,350,13.0,14.0,71,0.00,,,0.00,meteohub,2013-11-19 21:57:00,
2013-11-19 17:02:00,37.8,28.2,30.30,North,355,8.0,14.0,68,0.00,,,0.00,meteohub,2013-11-19 22:02:00,
2013-11-19 17:07:00,37.8,28.2,30.31,North,355,7.0,13.0,68,0.00,,,0.00,meteohub,2013-11-19 22:07:00,
2013-11-19 17:12:00,37.8,28.2,30.30,North,351,9.0,13.0,68,0.00,,,0.00,meteohub,2013-11-19 22:12:00,
2013-11-19 17:17:00,37.8,28.6,30.30,North,5,5.0,12.0,69,0.00,,,0.00,meteohub,2013-11-19 22:17:00,
2013-11-19 17:22:00,37.8,28.9,30.30,NNW,346,7.0,12.0,70,0.00,,,0.00,meteohub,2013-11-19 22:22:00,
2013-11-19 17:27:00,37.8,29.1,30.30,NNW,342,10.0,11.0,71,0.00,,,0.00,meteohub,2013-11-19 22:27:00,
2013-11-19 17:32:00,37.8,28.6,30.31,North,349,5.0,13.0,69,0.00,,,0.00,meteohub,2013-11-19 22:32:00,
2013-11-19 17:37:00,37.8,29.1,30.30,NW,309,7.0,13.0,71,0.00,,,0.00,meteohub,2013-11-19 22:37:00,
2013-11-19 17:42:00,37.8,28.9,30.31,NNW,328,7.0,13.0,70,0.00,,,0.00,meteohub,2013-11-19 22:42:00,
2013-11-19 17:47:00,37.8,28.9,30.31,NNW,331,6.0,10.0,70,0.00,,,0.00,meteohub,2013-11-19 22:47:00,
2013-11-19 17:52:00,37.8,28.9,30.31,NW,315,4.0,10.0,70,0.00,,,0.00,meteohub,2013-11-19 22:52:00,
2013-11-19 17:57:00,37.8,28.9,30.32,NW,314,6.0,10.0,70,0.00,,,0.00,meteohub,2013-11-19 22:57:00,
2013-11-19 18:02:00,37.9,29.1,30.32,NW,317,9.0,11.0,70,0.00,,,0.00,meteohub,2013-11-19 23:02:00,
2013-11-19 18:07:00,37.9,28.8,30.32,NNW,345,5.0,11.0,69,0.00,,,0.00,meteohub,2013-11-19 23:07:00,
2013-11-19 18:12:00,37.8,28.9,30.31,NNW,338,5.0,11.0,70,0.00,,,0.00,meteohub,2013-11-19 23:12:00,
2013-11-19 18:17:00,37.9,29.3,30.32,NW,321,9.0,11.0,71,0.00,,,0.00,meteohub,2013-11-19 23:17:00,
2013-11-19 18:22:00,37.9,29.1,30.32,NNW,336,10.0,11.0,70,0.00,,,0.00,meteohub,2013-11-19 23:22:00,
2013-11-19 18:27:00,37.9,29.1,30.32,NNW,336,10.0,11.0,70,0.00,,,0.00,meteohub,2013-11-19 23:27:00,
2013-11-19 18:32:00,37.9,28.8,30.32,NNW,344,4.0,12.0,69,0.00,,,0.00,meteohub,2013-11-19 23:32:00,
2013-11-19 18:37:00,37.9,28.8,30.33,NNW,340,3.0,12.0,69,0.00,,,0.00,meteohub,2013-11-19 23:37:00,
2013-11-19 18:42:00,37.9,29.1,30.32,NW,316,4.0,12.0,70,0.00,,,0.00,meteohub,2013-11-19 23:42:00,
2013-11-19 18:47:00,37.9,29.1,30.33,NW,315,0.0,7.0,70,0.00,,,0.00,meteohub,2013-11-19 23:47:00,
2013-11-19 18:52:00,37.9,29.1,30.32,NW,315,0.0,5.0,70,0.00,,,0.00,meteohub,2013-11-19 23:52:00,
2013-11-19 18:57:00,38.1,30.2,30.33,North,0,6.0,6.0,73,0.00,,,0.00,meteohub,2013-11-19 23:57:00,
2013-11-19 19:02:00,38.1,29.8,30.33,NW,315,3.0,8.0,72,0.00,,,0.00,meteohub,2013-11-20 00:02:00,
2013-11-19 19:07:00,38.1,29.8,30.33,NW,319,7.0,8.0,72,0.00,,,0.00,meteohub,2013-11-20 00:07:00,
2013-11-19 19:12:00,38.3,30.4,30.33,North,355,10.0,11.0,73,0.00,,,0.00,meteohub,2013-11-20 00:12:00,
2013-11-19 19:17:00,38.1,29.8,30.33,North,355,10.0,11.0,72,0.00,,,0.00,meteohub,2013-11-20 00:17:00,
2013-11-19 19:22:00,38.1,29.8,30.34,North,5,9.0,11.0,72,0.00,,,0.00,meteohub,2013-11-20 00:22:00,
2013-11-19 19:27:00,38.1,29.5,30.34,North,351,7.0,11.0,71,0.00,,,0.00,meteohub,2013-11-20 00:27:00,
2013-11-19 19:32:00,38.1,29.8,30.34,NNE,15,7.0,11.0,72,0.00,,,0.00,meteohub,2013-11-20 00:32:00,
2013-11-19 19:37:00,38.1,29.5,30.34,North,11,7.0,11.0,71,0.00,,,0.00,meteohub,2013-11-20 00:37:00,
2013-11-19 19:42:00,38.1,30.6,30.35,North,355,7.0,10.0,74,0.00,,,0.00,meteohub,2013-11-20 00:42:00,
2013-11-19 19:47:00,38.1,30.2,30.35,North,355,6.0,10.0,73,0.00,,,0.00,meteohub,2013-11-20 00:47:00,
2013-11-19 19:52:00,38.1,29.8,30.35,NNW,327,13.0,13.0,72,0.00,,,0.00,meteohub,2013-11-20 00:52:00,
2013-11-19 19:57:00,37.9,29.3,30.35,NW,323,6.0,14.0,71,0.00,,,0.00,meteohub,2013-11-20 00:57:00,
2013-11-19 20:02:00,38.1,30.2,30.37,NNW,340,9.0,14.0,73,0.00,,,0.00,meteohub,2013-11-20 01:02:00,
2013-11-19 20:07:00,38.1,30.2,30.35,NNW,330,2.0,14.0,73,0.00,,,0.00,meteohub,2013-11-20 01:07:00,
2013-11-19 20:12:00,38.1,30.2,30.35,North,355,9.0,10.0,73,0.00,,,0.00,meteohub,2013-11-20 01:12:00,
2013-11-19 20:17:00,37.9,30.0,30.35,NNW,345,7.0,11.0,73,0.00,,,0.00,meteohub,2013-11-20 01:17:00,
2013-11-19 20:22:00,37.9,30.4,30.35,North,5,10.0,12.0,74,0.00,,,0.00,meteohub,2013-11-20 01:22:00,
2013-11-19 20:27:00,37.9,30.0,30.35,North,10,11.0,12.0,73,0.00,,,0.00,meteohub,2013-11-20 01:27:00,
2013-11-19 20:32:00,37.9,30.0,30.36,NNW,348,9.0,12.0,73,0.00,,,0.00,meteohub,2013-11-20 01:32:00,
2013-11-19 20:37:00,37.9,30.0,30.36,NNW,347,7.0,12.0,73,0.00,,,0.00,meteohub,2013-11-20 01:37:00,
2013-11-19 20:42:00,37.9,30.4,30.36,NNE,26,9.0,12.0,74,0.00,,,0.00,meteohub,2013-11-20 01:42:00,
2013-11-19 20:47:00,37.8,29.1,30.36,North,5,6.0,12.0,71,0.00,,,0.00,meteohub,2013-11-20 01:47:00,
2013-11-19 20:52:00,37.8,29.8,30.36,NNE,19,8.0,11.0,73,0.00,,,0.00,meteohub,2013-11-20 01:52:00,
2013-11-19 20:57:00,37.8,29.8,30.36,North,9,7.0,12.0,73,0.00,,,0.00,meteohub,2013-11-20 01:57:00,
2013-11-19 21:02:00,37.8,30.2,30.36,North,5,8.0,12.0,74,0.00,,,0.00,meteohub,2013-11-20 02:02:00,
2013-11-19 21:07:00,37.8,30.2,30.36,North,5,6.0,11.0,74,0.00,,,0.00,meteohub,2013-11-20 02:07:00,
2013-11-19 21:12:00,37.8,30.2,30.36,North,355,7.0,11.0,74,0.00,,,0.00,meteohub,2013-11-20 02:12:00,
2013-11-19 21:17:00,37.8,30.2,30.36,North,9,5.0,10.0,74,0.00,,,0.00,meteohub,2013-11-20 02:17:00,
2013-11-19 21:22:00,37.8,30.2,30.36,North,0,5.0,10.0,74,0.00,,,0.00,meteohub,2013-11-20 02:22:00,
2013-11-19 21:27:00,37.8,29.8,30.36,NNE,20,9.0,10.0,73,0.00,,,0.00,meteohub,2013-11-20 02:27:00,
2013-11-19 21:32:00,37.8,29.8,30.37,North,5,9.0,9.0,73,0.00,,,0.00,meteohub,2013-11-20 02:32:00,
2013-11-19 21:37:00,37.8,30.2,30.36,NNE,12,8.0,10.0,74,0.00,,,0.00,meteohub,2013-11-20 02:37:00,
2013-11-19 21:42:00,37.8,29.8,30.37,North,9,5.0,10.0,73,0.00,,,0.00,meteohub,2013-11-20 02:42:00,
2013-11-19 21:47:00,37.8,30.2,30.37,NNE,26,5.0,10.0,74,0.00,,,0.00,meteohub,2013-11-20 02:47:00,
2013-11-19 21:52:00,37.8,30.2,30.37,NNE,30,7.0,10.0,74,0.00,,,0.00,meteohub,2013-11-20 02:52:00,
2013-11-19 21:57:00,37.8,29.8,30.38,NNE,19,5.0,10.0,73,0.00,,,0.00,meteohub,2013-11-20 02:57:00,
2013-11-19 22:02:00,37.8,29.8,30.37,NNE,16,2.0,10.0,73,0.00,,,0.00,meteohub,2013-11-20 03:02:00,
2013-11-19 22:07:00,37.8,30.2,30.37,NNE,19,4.0,10.0,74,0.00,,,0.00,meteohub,2013-11-20 03:07:00,
2013-11-19 22:12:00,37.8,29.8,30.37,NNE,21,1.0,7.0,73,0.00,,,0.00,meteohub,2013-11-20 03:12:00,
2013-11-19 22:17:00,37.8,30.2,30.37,NNE,18,6.0,6.0,74,0.00,,,0.00,meteohub,2013-11-20 03:17:00,
2013-11-19 22:22:00,37.8,30.6,30.37,NNE,21,5.0,9.0,75,0.00,,,0.00,meteohub,2013-11-20 03:22:00,
2013-11-19 22:27:00,37.8,30.2,30.38,North,351,9.0,10.0,74,0.00,,,0.00,meteohub,2013-11-20 03:27:00,
2013-11-19 22:32:00,37.8,29.8,30.38,NE,43,2.0,11.0,73,0.00,,,0.00,meteohub,2013-11-20 03:32:00,
2013-11-19 22:37:00,37.6,29.7,30.38,NE,43,1.0,11.0,73,0.00,,,0.00,meteohub,2013-11-20 03:37:00,
2013-11-19 22:42:00,37.6,29.7,30.38,NE,34,2.0,11.0,73,0.00,,,0.00,meteohub,2013-11-20 03:42:00,
2013-11-19 22:47:00,37.8,30.2,30.38,NNE,32,1.0,9.0,74,0.00,,,0.00,meteohub,2013-11-20 03:47:00,
2013-11-19 22:52:00,37.0,29.8,30.38,NE,36,0.0,9.0,75,0.00,,,0.00,meteohub,2013-11-20 03:52:00,
2013-11-19 22:57:00,36.0,29.5,30.38,NE,36,0.0,9.0,77,0.00,,,0.00,meteohub,2013-11-20 03:57:00,
2013-11-19 23:02:00,34.5,28.9,30.39,NE,37,0.0,6.0,80,0.00,,,0.00,meteohub,2013-11-20 04:02:00,
2013-11-19 23:07:00,34.3,28.8,30.39,NE,37,0.0,1.0,80,0.00,,,0.00,meteohub,2013-11-20 04:07:00,
2013-11-19 23:12:00,34.3,28.8,30.39,NE,40,0.0,1.0,80,0.00,,,0.00,meteohub,2013-11-20 04:12:00,
2013-11-19 23:17:00,34.3,29.5,30.39,NE,40,0.0,1.0,82,0.00,,,0.00,meteohub,2013-11-20 04:17:00,
2013-11-19 23:22:00,34.0,29.1,30.40,NE,40,0.0,1.0,82,0.00,,,0.00,meteohub,2013-11-20 04:22:00,
2013-11-19 23:28:00,33.8,29.1,30.40,NE,40,0.0,1.0,83,0.00,,,0.00,meteohub,2013-11-20 04:28:00,
2013-11-19 23:33:00,33.6,28.9,30.40,NE,41,0.0,0.0,83,0.00,,,0.00,meteohub,2013-11-20 04:33:00,
2013-11-19 23:38:00,33.6,28.8,30.40,ESE,107,0.0,2.0,82,0.00,,,0.00,meteohub,2013-11-20 04:38:00,
2013-11-19 23:43:00,34.0,29.1,30.40,ESE,107,0.0,2.0,82,0.00,,,0.00,meteohub,2013-11-20 04:43:00,
2013-11-19 23:48:00,33.8,29.1,30.40,ESE,107,0.0,2.0,83,0.00,,,0.00,meteohub,2013-11-20 04:48:00,
2013-11-19 23:53:00,33.8,28.9,30.39,ESE,107,0.0,2.0,82,0.00,,,0.00,meteohub,2013-11-20 04:53:00,
2013-11-19 23:59:00,34.0,29.3,30.39,ESE,107,0.0,1.0,83,0.00,,,0.00,meteohub,2013-11-20 04:59:00,